Location: Kellogg
(38.0159°N, 90.0546°W)
Time: 22:24:57
(UTC+00:00)

Vanguard 2 - Pass Details

Date: 24 September 2024
Orbit: 552 x 2910 km, 32.9° (Epoch: 09 October)

Event Time Altitude Azimuth Distance (km) Brightness Sun altitude
Rises 06:30:20 0° 236° (WSW) 2,941 - -51.6°
Reaches altitude 10° 06:33:00 10° 225° (SW) 1,895 - -51.5°
Maximum altitude 06:36:31 27° 165° (SSE) 1,061 - -51.3°
Drops below altitude 10° 06:39:59 10° 105° (ESE) 1,862 - -51.1°
Sets 06:42:35 0° 93° (E) 2,877 - -50.9°
